Amargosa Valley, NV

4:59 AM PST on February 19, 2017 (GMT -0800)
Mercury

Weather History for KDRA - January, 2013

Change the Weather History Date:

Sunday, January 6, 2013

  Actual Average Record
Temperature  
Mean Temperature 38 °F 43 °F  
Max Temperature 50 °F 55 °F 69 °F (2015)
Min Temperature 27 °F 32 °F 22 °F (2009)
Degree Days  
Heating Degree Days 26    
Cooling Degree Days 0    
Moisture  
Dew Point 13 °F    
Average Humidity 35    
Maximum Humidity 59    
Minimum Humidity 14    
Precipitation  
Precipitation 0.00 in 0.03 in 0.20 in (1993)
Month to date precipitation 0.18  
Year to date precipitation 0.18  
Sea Level Pressure  
Sea Level Pressure 30.01 in    
Wind  
Wind Speed 5 mph (ENE)    
Max Wind Speed 18 mph    
Max Gust Speed 18 mph    
Visibility 10 miles    
Events      
T = Trace of Precipitation, MM = Missing Value Source: NWS Daily Summary

Daily Weather History Graph

Daily Weather History Graph

Search for Another Location

Airport or City:

Trip Planner

Search our weather history database for the weather conditions in past years. The results will help you decide how hot, cold, wet, or windy it might be!

Date:

Astronomy

Jan. 06, 2013 Rise Set
Actual Time 6:56 AM PST 4:43 PM PST
Civil Twilight 6:28 AM PST 5:12 PM PST
Nautical Twilight 5:56 AM PST 5:44 PM PST
Astronomical Twilight 5:24 AM PST 6:15 PM PST
Moon 1:19 AM PST (1/6) 12:11 PM PST (1/6)
Length of Visible Light 10h 44m
Length of Day
9h 46m
Waning Crescent, 32% of the Moon is Illuminated
Jan 6
Waning Crescent
Jan 11
New
Jan 18
First Quarter
Jan 26
Full
Feb 3
Last Quarter

Hourly Weather History & Observations

Time (PST) Temp. Windchill Dew Point Humidity Pressure Visibility Wind Dir Wind Speed Gust Speed Precip Events Conditions
12:52 AM 30.9 °F - 9.0 °F 40% 30.12 in 10.0 mi Calm Calm - N/A   Clear
1:52 AM 35.1 °F 29.3 °F 7.0 °F 31% 30.09 in 10.0 mi NE 6.9 mph - N/A   Clear
2:52 AM 33.1 °F 30.0 °F 8.1 °F 35% 30.09 in 10.0 mi NNE 3.5 mph - N/A   Clear
3:52 AM 36.0 °F 31.1 °F 8.1 °F 31% 30.05 in 10.0 mi East 5.8 mph - N/A   Partly Cloudy
4:52 AM 36.0 °F 31.1 °F 8.1 °F 31% 30.04 in 10.0 mi East 5.8 mph - N/A   Clear
6:52 AM 27.0 °F 18.7 °F 8.1 °F 45% 30.07 in 10.0 mi NE 8.1 mph - N/A   Clear
7:52 AM 30.9 °F 27.5 °F 9.0 °F 40% 30.06 in 10.0 mi Variable 3.5 mph - N/A   Clear
8:52 AM 36.0 °F - 10.0 °F 34% 30.08 in 10.0 mi Calm Calm - N/A   Overcast
9:52 AM 41.0 °F - 8.1 °F 26% 30.06 in 10.0 mi Calm Calm - N/A   Overcast
10:52 AM 44.1 °F 38.1 °F 9.0 °F 24% 30.01 in 10.0 mi SE 11.5 mph - N/A   Mostly Cloudy
11:52 AM 48.0 °F - 6.1 °F 18% 29.99 in 10.0 mi SSW 6.9 mph - N/A   Clear
12:45 PM 50.0 °F - 12.2 °F 22% 29.97 in 10.0 mi SW 18.4 mph - N/A   Clear
12:52 PM 50.0 °F - 12.0 °F 22% 29.95 in 10.0 mi SW 15.0 mph - N/A   Clear
1:52 PM 48.0 °F - 12.9 °F 24% 29.94 in 10.0 mi WSW 12.7 mph 18.4 mph N/A   Clear
2:52 PM 48.0 °F - 17.1 °F 29% 29.94 in 10.0 mi WSW 9.2 mph - N/A   Clear
3:52 PM 46.9 °F - 19.0 °F 33% 29.95 in 10.0 mi WSW 10.4 mph - N/A   Clear
4:52 PM 41.0 °F 35.8 °F 18.0 °F 40% 29.96 in 10.0 mi NW 8.1 mph - N/A   Clear
5:52 PM 37.0 °F 31.6 °F 17.1 °F 44% 29.98 in 10.0 mi NE 6.9 mph - N/A   Clear
6:52 PM 36.0 °F 33.3 °F 18.0 °F 48% 30.00 in 10.0 mi East 3.5 mph - N/A   Clear
7:52 PM 35.1 °F 31.0 °F 18.0 °F 50% 30.00 in 10.0 mi ENE 4.6 mph - N/A   Clear
8:52 PM 33.1 °F 30.0 °F 18.0 °F 54% 30.00 in 10.0 mi West 3.5 mph - N/A   Mostly Cloudy
9:52 PM 30.9 °F 25.2 °F 18.0 °F 59% 29.99 in 10.0 mi East 5.8 mph - N/A   Clear
10:52 PM 32.0 °F 27.5 °F 18.0 °F 56% 30.00 in 10.0 mi Variable 4.6 mph - N/A   Clear
11:52 PM 33.1 °F 25.5 °F 16.0 °F 50% 29.99 in 10.0 mi NNE 9.2 mph - N/A   Clear